• în România
  • Lista ţărilor
  • Pe 7 zile
  • Temperatura apei
  • Hartă satelitară
  • Meteo pe hartă
  • Widget-uri
  • user-avatar
    Intrare

    Meteo pe oră la Mendoza

    Astăzi, 22 Iulie, Sâmbătă

    Timp Temperatura Precipitaţii Vânt Presiune Umiditate
    00:00 +13°C° 0 mm 2 m/s 696 mmHg 19%
    01:00 +11°C° 0 mm 3 m/s 695 mmHg 18%
    02:00 +11°C° 0 mm 3 m/s 695 mmHg 19%
    03:00 +10°C° 0 mm 3 m/s 695 mmHg 21%
    04:00 +10°C° 0 mm 3 m/s 694 mmHg 22%
    05:00 +10°C° 0 mm 3 m/s 694 mmHg 23%
    06:00 +10°C° 0 mm 3 m/s 694 mmHg 24%
    07:00 +9°C° 0 mm 3 m/s 694 mmHg 25%
    08:00 +12°C° 0 mm 3 m/s 694 mmHg 23%
    09:00 +14°C° 0 mm 3 m/s 694 mmHg 21%
    10:00 +18°C° 0 mm 3 m/s 694 mmHg 19%
    11:00 +19°C° 0 mm 3 m/s 693 mmHg 18%
    12:00 +20°C° 0 mm 3 m/s 693 mmHg 17%
    13:00 +21°C° 0 mm 3 m/s 692 mmHg 15%
    14:00 +20°C° 0 mm 3 m/s 692 mmHg 16%
    15:00 +20°C° 0 mm 3 m/s 692 mmHg 16%
    16:00 +20°C° 0 mm 2 m/s 692 mmHg 16%
    17:00 +18°C° 0 mm 3 m/s 692 mmHg 17%
    18:00 +17°C° 0 mm 3 m/s 693 mmHg 18%
    19:00 +14°C° 0 mm 3 m/s 693 mmHg 18%
    20:00 +14°C° 0 mm 3 m/s 693 mmHg 19%
    21:00 +14°C° 0 mm 3 m/s 693 mmHg 19%
    22:00 +14°C° 0 mm 3 m/s 694 mmHg 20%
    23:00 +13°C° 0 mm 3 m/s 694 mmHg 21%

    Mâine, 23 Iulie, Duminică

    Timp Temperatura Precipitaţii Vânt Presiune Umiditate
    00:00 +13°C° 0 mm 4 m/s 694 mmHg 23%
    01:00 +13°C° 0 mm 4 m/s 694 mmHg 25%
    02:00 +13°C° 0 mm 4 m/s 694 mmHg 27%
    03:00 +12°C° 0 mm 4 m/s 694 mmHg 29%
    04:00 +12°C° 0 mm 4 m/s 694 mmHg 31%
    05:00 +12°C° 0 mm 4 m/s 694 mmHg 33%
    06:00 +12°C° 0 mm 4 m/s 695 mmHg 34%
    07:00 +12°C° 0 mm 4 m/s 695 mmHg 35%
    08:00 +12°C° 0 mm 5 m/s 696 mmHg 36%
    09:00 +12°C° 0 mm 7 m/s 697 mmHg 37%
    10:00 +13°C° 0 mm 8 m/s 697 mmHg 38%
    11:00 +14°C° 0 mm 7 m/s 697 mmHg 38%
    12:00 +14°C° 0 mm 7 m/s 697 mmHg 38%
    13:00 +15°C° 0 mm 7 m/s 696 mmHg 39%
    14:00 +14°C° 0 mm 6 m/s 696 mmHg 39%
    15:00 +14°C° 0 mm 6 m/s 696 mmHg 39%
    16:00 +13°C° 0 mm 5 m/s 697 mmHg 39%
    17:00 +12°C° 0 mm 5 m/s 697 mmHg 42%
    18:00 +11°C° 0 mm 4 m/s 698 mmHg 45%
    19:00 +8°C° 0 mm 4 m/s 698 mmHg 48%
    20:00 +8°C° 0 mm 4 m/s 699 mmHg 48%
    21:00 +7°C° 0 mm 4 m/s 699 mmHg 48%
    22:00 +7°C° 0 mm 4 m/s 699 mmHg 48%
    23:00 +6°C° 0 mm 4 m/s 699 mmHg 48%

    Poimâine, 24 Iulie, Luni

    Timp Temperatura Precipitaţii Vânt Presiune Umiditate
    00:00 +6°C° 0 mm 4 m/s 699 mmHg 49%
    01:00 +5°C° 0 mm 4 m/s 699 mmHg 49%
    02:00 +5°C° 0 mm 4 m/s 699 mmHg 49%
    03:00 +5°C° 0 mm 4 m/s 698 mmHg 50%
    04:00 +5°C° 0 mm 4 m/s 698 mmHg 50%
    05:00 +5°C° 0 mm 3 m/s 698 mmHg 50%
    06:00 +5°C° 0 mm 3 m/s 699 mmHg 50%
    07:00 +5°C° 0 mm 3 m/s 699 mmHg 50%
    08:00 +8°C° 0 mm 3 m/s 699 mmHg 45%
    09:00 +10°C° 0 mm 3 m/s 699 mmHg 39%
    10:00 +12°C° 0 mm 3 m/s 700 mmHg 34%
    11:00 +13°C° 0 mm 3 m/s 699 mmHg 33%
    12:00 +13°C° 0 mm 3 m/s 699 mmHg 31%
    13:00 +14°C° 0 mm 3 m/s 698 mmHg 29%
    14:00 +14°C° 0 mm 3 m/s 698 mmHg 30%
    15:00 +14°C° 0 mm 3 m/s 698 mmHg 31%
    16:00 +14°C° 0 mm 3 m/s 698 mmHg 32%
    17:00 +13°C° 0 mm 3 m/s 699 mmHg 35%
    18:00 +12°C° 0 mm 3 m/s 699 mmHg 38%
    19:00 +11°C° 0 mm 3 m/s 700 mmHg 40%
    20:00 +10°C° 0 mm 3 m/s 700 mmHg 42%
    21:00 +10°C° 0 mm 3 m/s 700 mmHg 43%
    22:00 +9°C° 0 mm 3 m/s 700 mmHg 45%
    23:00 +9°C° 0 mm 3 m/s 699 mmHg 46%

    25 Iulie, Marţi

    Timp Temperatura Precipitaţii Vânt Presiune Umiditate
    00:00 +8°C° 0 mm 3 m/s 699 mmHg 47%
    01:00 +8°C° 0 mm 3 m/s 699 mmHg 49%
    02:00 +8°C° 0 mm 3 m/s 698 mmHg 50%
    03:00 +7°C° 0 mm 3 m/s 698 mmHg 52%
    04:00 +7°C° 0 mm 3 m/s 698 mmHg 53%
    05:00 +7°C° 0 mm 3 m/s 698 mmHg 54%
    06:00 +7°C° 0 mm 3 m/s 698 mmHg 54%
    07:00 +7°C° 0 mm 3 m/s 699 mmHg 55%
    08:00 +9°C° 0 mm 3 m/s 699 mmHg 50%
    09:00 +11°C° 0 mm 3 m/s 699 mmHg 46%
    10:00 +12°C° 0 mm 3 m/s 699 mmHg 41%
    11:00 +13°C° 0 mm 3 m/s 698 mmHg 39%
    12:00 +14°C° 0 mm 3 m/s 698 mmHg 36%
    13:00 +16°C° 0 mm 3 m/s 697 mmHg 34%
    14:00 +16°C° 0 mm 3 m/s 698 mmHg 34%
    15:00 +16°C° 0 mm 2 m/s 698 mmHg 34%
    16:00 +16°C° 0 mm 2 m/s 698 mmHg 34%
    17:00 +15°C° 0 mm 2 m/s 698 mmHg 37%
    18:00 +14°C° 0 mm 2 m/s 699 mmHg 39%
    19:00 +12°C° 0 mm 2 m/s 699 mmHg 42%
    20:00 +12°C° 0 mm 2 m/s 699 mmHg 43%
    21:00 +12°C° 0 mm 2 m/s 699 mmHg 45%
    22:00 +10°C° 0 mm 2 m/s 699 mmHg 46%
    23:00 +10°C° 0 mm 2 m/s 699 mmHg 48%

    26 Iulie, Miercuri

    Timp Temperatura Precipitaţii Vânt Presiune Umiditate
    00:00 +9°C° 0 mm 2 m/s 698 mmHg 49%
    01:00 +9°C° 0 mm 2 m/s 698 mmHg 51%
    02:00 +9°C° 0 mm 2 m/s 698 mmHg 52%
    03:00 +9°C° 0 mm 2 m/s 698 mmHg 53%
    04:00 +8°C° 0 mm 2 m/s 697 mmHg 54%
    05:00 +8°C° 0 mm 3 m/s 697 mmHg 54%
    06:00 +8°C° 0 mm 3 m/s 698 mmHg 54%
    07:00 +8°C° 0 mm 3 m/s 698 mmHg 55%
    08:00 +10°C° 0 mm 2 m/s 698 mmHg 50%
    09:00 +13°C° 0 mm 2 m/s 698 mmHg 44%
    10:00 +15°C° 0 mm 2 m/s 698 mmHg 39%
    11:00 +17°C° 0 mm 2 m/s 698 mmHg 37%
    12:00 +18°C° 0 mm 3 m/s 697 mmHg 34%
    13:00 +19°C° 0 mm 3 m/s 696 mmHg 31%
    14:00 +19°C° 0 mm 2 m/s 696 mmHg 31%
    15:00 +19°C° 0 mm 2 m/s 696 mmHg 31%
    16:00 +19°C° 0 mm 2 m/s 697 mmHg 31%
    17:00 +17°C° 0 mm 2 m/s 697 mmHg 34%
    18:00 +16°C° 0 mm 2 m/s 697 mmHg 36%
    19:00 +14°C° 0 mm 2 m/s 697 mmHg 39%
    20:00 +14°C° 0 mm 2 m/s 697 mmHg 38%
    21:00 +14°C° 0 mm 2 m/s 698 mmHg 37%
    22:00 +13°C° 0 mm 2 m/s 698 mmHg 37%
    23:00 +12°C° 0 mm 3 m/s 698 mmHg 37%

    27 Iulie, Joi

    Timp Temperatura Precipitaţii Vânt Presiune Umiditate
    00:00 +12°C° 0 mm 3 m/s 697 mmHg 38%
    01:00 +12°C° 0 mm 3 m/s 697 mmHg 38%
    02:00 +11°C° 0 mm 3 m/s 697 mmHg 40%
    03:00 +11°C° 0 mm 3 m/s 697 mmHg 43%
    04:00 +11°C° 0 mm 3 m/s 697 mmHg 45%
    05:00 +11°C° 0 mm 3 m/s 697 mmHg 47%
    06:00 +11°C° 0 mm 3 m/s 698 mmHg 49%
    07:00 +11°C° 0 mm 3 m/s 698 mmHg 52%
    08:00 +13°C° 0 mm 3 m/s 698 mmHg 50%
    09:00 +16°C° 0 mm 3 m/s 698 mmHg 49%
    10:00 +18°C° 0 mm 3 m/s 699 mmHg 48%
    11:00 +18°C° 0 mm 3 m/s 698 mmHg 49%
    12:00 +19°C° 0 mm 3 m/s 698 mmHg 50%
    13:00 +20°C° 0 mm 3 m/s 697 mmHg 51%
    14:00 +20°C° 0 mm 3 m/s 697 mmHg 52%
    15:00 +20°C° 0 mm 2 m/s 697 mmHg 54%
    16:00 +19°C° 0 mm 2 m/s 697 mmHg 56%
    17:00 +18°C° 0 mm 2 m/s 697 mmHg 60%
    18:00 +17°C° 0 mm 2 m/s 697 mmHg 65%
    19:00 +16°C° 0 mm 2 m/s 697 mmHg 69%
    20:00 +16°C° 0 mm 2 m/s 697 mmHg 70%
    21:00 +15°C° 0 mm 2 m/s 697 mmHg 70%
    22:00 +15°C° 0 mm 2 m/s 697 mmHg 70%
    23:00 +14°C° 0 mm 2 m/s 696 mmHg 69%
    Arată mai mult